Find RAISE-4

NORAD ID: 67073 Int'l Des: 2025-297 Owner: JAXA Country: J operational
LEOCIRCULARRETROGRADESSO

現在のビュー

3D地球を読み込み中...

RAISE-4について

説明を読み込み中...

次回通過

Passes for default location (London). Set your location on the main map for personalized predictions.

高度履歴

Loading altitude history...

軌道要素

1 67073U 25297B 26146.38500764 .00003830 00000-0 24690-3 0 9998
2 67073 97.5087 294.9093 0013880 110.3252 249.9469 15.08825183 24607
Epoch: May 26, 2026 • Age: 12 hours

現在のステータス

高度 538.1 km
速度 7.60 km/s
衛星直下点 6.64°N, 85.37°W
打ち上げ日 Dec 14, 2025
運用期間 0.4 years
タイプ other

技術仕様

分類 Payload
質量 110.00 kg
乾燥質量 110.00 kg
総質量 110.00 kg
長さ 1.00 m
直径 0.80 m
スパン 1.00 m
形状 Box
製造者 MHI
バスタイプ RAPIS
フェーズステータス In Orbit
所有者/国 JAXA/J

Most Searched